Flag for Brazil Weather past 2 weeks in Maceió, Alagoas, Brazil

Now
72 °F

Passing clouds.


Feels Like: 67 °F
Forecast: 71 / 83 °F
Wind: 3 mph from Northwest

Location: Maceio Aeroporto

Current Time: Sep 4, 2015 at 3:02:17 AM

Latest Report: Sep 4, 2015 at 2:00 AM


Visibility: N/A

Pressure: 30.01 "Hg

Humidity: 94%

Dew point: 70 °F

Location of MaceióLocation

Historic Weather in Maceió — Graph

°F

Maceió temperature yesterday

Maximum temperature yesterday: 81 °F (at 1:00 PM)
Minimum temperature yesterday: 70 °F (at 12:00 AM)
Average temperature yesterday: 74 °F

Past Weeks' High & Low Weather Summary

 TemperatureHumidityPressure
High86 °F (Aug 25, 1:00 PM)100% (Aug 20, 3:00 AM)30.27 "Hg (Aug 20, 3:00 AM)
Low66 °F (Aug 24, 12:00 AM)55% (Aug 31, 1:00 PM)29.92 "Hg (Aug 22, 3:00 PM)
Average75 °F85%30.03 "Hg
* Reported Aug 20 2:00 AM — Sep 4 2:00 AM, Maceió, Weather by CustomWeather, © 2015

Note: Actual official high and low records may vary slightly from our data, if they occured in-between our weather recording intervals... More about our weather records

Advertising

Maceió weather history for previous 24 hours

 ConditionsComfort  
Time TempWeatherWind HumidityBarometerVisibility
2:00 AM
Fri, Sep 4
72 °FPassing clouds.3 mph94%30.01 "HgN/A
1:00 AM72 °FPassing clouds.2 mph94%30.04 "HgN/A
12:00 AM72 °FPassing clouds.2 mph94%30.04 "HgN/A
11:00 PM
Thu, Sep 3
72 °FPassing clouds.2 mph94%30.04 "HgN/A
10:00 PM72 °FPassing clouds.2 mph94%30.07 "HgN/A
9:00 PM72 °FPassing clouds.No wind94%30.04 "HgN/A
8:00 PM72 °FClear.2 mph94%30.04 "Hg10 mi
7:00 PM73 °FPassing clouds.2 mph94%30.01 "HgN/A
6:00 PM75 °FPassing clouds.6 mph89%30.01 "HgN/A
5:00 PM79 °FScattered clouds.10 mph74%30.01 "HgN/A
4:00 PM81 °FScattered clouds.9 mph70%29.98 "HgN/A
3:00 PM81 °FScattered clouds.10 mph70%29.98 "HgN/A
2:00 PM81 °FScattered clouds.9 mph70%30.04 "HgN/A
1:00 PM81 °FScattered clouds.9 mph74%30.04 "HgN/A
12:00 PM79 °FBroken clouds.9 mph84%30.04 "HgN/A
11:00 AM79 °FBroken clouds.5 mph84%30.07 "HgN/A
10:00 AM75 °FPartly sunny.2 mph94%30.07 "HgN/A
9:00 AM77 °FBroken clouds.5 mph89%30.07 "HgN/A
8:00 AM73 °FBroken clouds.2 mph94%30.07 "HgN/A
7:00 AM72 °FFog.5 mph100%30.04 "Hg3 mi
6:00 AM70 °FLight rain. Fog.9 mph100%N/A2 mi
5:00 AM70 °FPassing clouds.3 mph100%30.01 "HgN/A
4:00 AM72 °FPassing clouds.2 mph94%30.01 "HgN/A
3:00 AM70 °FPassing clouds.2 mph100%30.01 "HgN/A
Weather by CustomWeather, © 2015

See weather overviewHow to use our weather pages